Location: Bakhuizen
(52.8696°N, 5.4575°E)
Time: 08:21:46
(UTC+00:00)

Cosmos 1833 - Pass Details

Date: 29 September 2021
Orbit: 834 x 864 km, 70.9° (Epoch: 23 October)

Event Time Altitude Azimuth Distance (km) Brightness Sun altitude
Rises 20:17:44 0° 315° (NW) 3,396 8.6 -26.4°
Reaches altitude 10° 20:21:58 10° 285° (WNW) 2,453 7.5 -26.9°
Maximum altitude 20:23:48 12° 265° (W) 2,333 7.1 -27.1°
Drops below altitude 10° 20:25:39 10° 246° (WSW) 2,446 6.9 -27.4°
Sets 20:29:52 0° 215° (SW) 3,375 7.3 -27.9°
